period_start,C,m1,H,J0,J1,J2,J3,J4,J5,JA,JB,JC,JD,JJ,JK,JN,#
2015-02-07 00:01:34,0.15,2.46,0.00,17.58,22.99,25.88,5.02,27.71,1038.11,2045.99,2544.55,2680.56,2896.59,350.12,361.78,16.45,0000 0000 0000 0000 000000
2015-02-07 00:06:35,0.13,2.47,0.00,17.61,22.99,25.90,4.99,27.96,1038.10,2045.99,2543.28,2679.61,2895.55,350.18,361.82,16.48,0000 0000 0000 0000 000000
2015-02-07 00:11:36,0.16,2.47,0.00,17.55,22.99,25.80,4.99,27.98,1038.10,2045.99,2541.85,2678.53,2894.36,349.61,361.58,16.50,0000 0000 0000 0000 000000
2015-02-07 00:16:37,0.14,2.47,0.00,17.57,22.99,25.78,5.05,27.96,1038.10,2045.98,2540.55,2677.55,2893.35,350.26,362.07,16.53,0000 0000 0000 0000 000000
2015-02-07 00:21:39,0.13,2.48,0.00,17.58,22.99,25.85,5.02,27.87,1038.05,2045.97,2539.31,2676.58,2892.26,349.88,361.51,16.56,0000 0000 0000 0000 000000
2015-02-07 00:26:40,0.14,2.48,0.00,17.48,22.99,25.70,5.04,27.93,1037.73,2045.99,2537.91,2675.66,2891.17,350.03,361.73,16.59,0000 0000 0000 0000 000000
2015-02-07 00:31:41,0.14,2.49,0.00,17.60,22.99,25.74,4.92,27.77,1037.69,2045.99,2536.64,2674.67,2890.18,349.06,360.58,16.62,0000 0000 0000 0000 000000
2015-02-07 00:36:42,0.13,2.49,0.00,17.59,22.99,25.89,5.02,27.73,1037.65,2045.99,2535.42,2673.74,2889.15,350.17,361.71,16.65,0000 0000 0000 0000 000000
2015-02-07 00:41:44,0.17,2.50,0.00,17.50,22.98,25.86,4.96,27.98,1037.63,2045.98,2533.88,2672.68,2888.05,349.99,361.60,16.68,0000 0000 0000 0000 000000
2015-02-07 00:46:45,0.13,2.50,0.00,17.55,22.97,25.85,4.97,27.77,1037.64,2045.99,2532.65,2671.80,2887.00,349.22,360.94,16.71,0000 0000 0000 0000 000000
2015-02-07 00:51:46,0.12,2.50,0.00,17.54,22.97,25.88,5.01,27.80,1037.63,2045.99,2531.41,2670.87,2885.96,349.63,361.20,16.74,0000 0000 0000 0000 000000
2015-02-07 00:56:47,0.14,2.51,0.00,17.51,22.97,25.81,4.94,27.78,1037.62,2045.99,2530.19,2669.92,2884.90,349.26,361.05,16.77,0000 0000 0000 0000 000000
2015-02-07 01:01:48,0.15,2.51,0.00,17.54,22.97,25.89,4.98,27.80,1037.61,2045.99,2528.80,2668.94,2883.83,350.08,361.43,16.80,0000 0000 0000 0000 000000
2015-02-07 01:06:49,0.13,2.52,0.00,17.52,22.97,25.82,5.02,28.03,1037.61,2045.99,2527.56,2668.00,2882.84,350.29,361.85,16.83,0000 0000 0000 0000 000000
2015-02-07 01:11:50,0.14,2.52,0.00,17.53,22.97,25.77,5.06,27.84,1037.61,2045.99,2526.25,2667.08,2881.86,350.03,361.39,16.86,0000 0000 0000 0000 000000
2015-02-07 01:16:51,0.15,2.53,0.00,17.51,22.97,25.92,4.93,27.89,1037.61,2045.99,2524.97,2666.12,2880.80,349.01,360.85,16.89,0000 0000 0000 0000 000000
2015-02-07 01:21:53,0.15,2.53,0.00,17.48,22.95,25.79,5.02,27.85,1037.61,2045.99,2523.70,2665.15,2879.74,350.39,362.11,16.91,0000 0000 0000 0000 000000
2015-02-07 01:26:54,0.12,2.53,0.00,17.50,22.95,25.88,5.07,27.93,1037.63,2045.99,2522.52,2664.24,2878.88,350.22,361.73,16.94,0000 0000 0000 0000 000000
2015-02-07 01:31:55,0.14,2.54,0.00,17.51,22.94,25.95,5.04,27.95,1037.63,2045.99,2521.26,2663.37,2877.90,350.37,362.02,16.97,0000 0000 0000 0000 000000
2015-02-07 01:36:56,0.15,2.54,0.00,17.41,22.94,25.70,4.99,27.89,1037.61,2045.99,2519.90,2662.39,2876.86,349.84,361.74,17.00,0000 0000 0000 0000 000000
2015-02-07 01:41:58,0.15,2.55,0.00,17.50,22.94,25.71,5.03,27.93,1037.61,2046.00,2518.49,2661.45,2875.91,350.10,361.63,17.03,0000 0000 0000 0000 000000
2015-02-07 01:46:59,0.12,2.55,0.00,17.50,22.93,25.82,5.01,27.78,1037.57,2046.00,2517.43,2660.62,2874.94,349.86,361.40,17.06,0000 0000 0000 0000 000000
2015-02-07 01:52:00,0.13,2.55,0.00,17.48,22.92,25.75,4.99,27.78,1037.24,2046.00,2516.12,2659.68,2873.94,349.80,361.26,17.09,0000 0000 0000 0000 000000
2015-02-07 01:57:02,0.13,2.56,0.00,17.53,22.92,25.84,4.96,27.65,1037.36,2046.01,2514.96,2658.77,2872.94,349.55,361.16,17.12,0000 0000 0000 0000 000000
2015-02-07 02:02:03,0.15,2.56,0.00,17.50,22.92,25.91,5.03,27.89,1037.29,2046.00,2513.68,2657.85,2871.94,350.09,361.47,17.15,0000 0000 0000 0000 000000
2015-02-07 02:07:05,0.13,2.57,0.00,17.47,22.92,25.67,4.91,27.82,1037.14,2046.00,2512.48,2656.94,2870.89,349.68,361.16,17.18,0000 0000 0000 0000 000000
2015-02-07 02:12:06,0.13,2.57,0.00,17.50,22.92,25.86,5.02,27.80,1037.15,2046.02,2511.29,2656.02,2869.89,350.03,361.35,17.21,0000 0000 0000 0000 000000
2015-02-07 02:17:07,0.16,2.58,0.00,17.50,22.92,25.83,4.94,27.80,1037.14,2046.01,2509.95,2655.02,2868.77,349.15,360.35,17.24,0000 0000 0000 0000 000000
2015-02-07 02:22:08,0.15,2.58,0.00,17.54,22.91,25.77,4.98,27.96,1037.14,2046.01,2508.67,2653.99,2867.65,349.97,361.32,17.27,0000 0000 0000 0000 000000
2015-02-07 02:27:09,0.15,2.59,0.00,17.56,22.90,25.92,5.02,27.88,1037.17,2046.00,2507.37,2652.97,2866.49,350.53,361.96,17.30,0000 0000 0000 0000 000000
2015-02-07 02:32:10,0.14,2.59,0.00,17.51,22.90,25.75,5.01,27.73,1037.15,2046.01,2506.02,2651.98,2865.35,350.23,361.70,17.32,0000 0000 0000 0000 000000
2015-02-07 02:37:12,0.15,2.59,0.00,17.54,22.90,25.81,5.00,27.75,1037.16,2046.01,2504.69,2650.99,2864.30,350.26,361.62,17.35,0000 0000 0000 0000 000000
2015-02-07 02:42:13,0.16,2.60,0.00,17.54,22.89,25.81,5.05,27.89,1037.13,2046.01,2503.29,2649.89,2863.15,350.12,361.37,17.38,0000 0000 0000 0000 000000
2015-02-07 02:47:15,0.16,2.60,0.00,17.56,22.90,25.76,5.04,27.76,1037.13,2046.01,2501.81,2648.88,2862.01,350.06,361.20,17.41,0000 0000 0000 0000 000000
2015-02-07 02:52:16,0.14,2.61,0.00,17.61,22.89,25.92,5.03,27.66,1037.12,2046.01,2500.52,2647.93,2860.96,350.30,361.40,17.44,0000 0000 0000 0000 000000
2015-02-07 02:57:17,0.18,2.61,0.00,17.51,22.90,25.81,5.01,27.72,1037.10,2046.01,2499.06,2646.80,2859.80,349.93,361.56,17.47,0000 0000 0000 0000 000000
2015-02-07 03:02:18,0.15,2.62,0.00,17.61,22.90,25.90,5.02,27.86,1037.12,2046.01,2497.69,2645.80,2858.69,350.04,361.31,17.50,0000 0000 0000 0000 000000
2015-02-07 03:07:20,0.15,2.62,0.00,17.63,22.90,25.92,5.04,28.02,1037.12,2046.01,2496.41,2644.75,2857.56,350.32,361.68,17.53,0000 0000 0000 0000 000000
2015-02-07 03:12:21,0.14,2.63,0.00,17.64,22.91,25.86,5.00,27.89,1037.11,2046.01,2495.09,2643.72,2856.44,349.52,360.60,17.56,0000 0000 0000 0000 000000
2015-02-07 03:17:22,0.15,2.63,0.00,17.68,22.92,26.00,5.00,27.85,1037.04,2046.01,2493.77,2642.70,2855.30,350.39,361.55,17.59,0000 0000 0000 0000 000000
2015-02-07 03:22:24,0.16,2.64,0.00,17.62,22.92,25.85,4.95,27.80,1036.93,2046.00,2492.32,2641.59,2854.09,349.63,360.80,17.62,0000 0000 0000 0000 000000
2015-02-07 03:27:25,0.16,2.64,0.00,17.67,22.92,25.89,5.02,27.81,1036.72,2046.00,2490.94,2640.57,2852.94,349.76,360.80,17.65,0000 0000 0000 0000 000000
2015-02-07 03:32:26,0.16,2.64,0.00,17.74,22.92,26.08,4.94,27.81,1036.69,2046.00,2489.60,2639.52,2851.83,349.28,360.35,17.68,0000 0000 0000 0000 000000
2015-02-07 03:37:28,0.15,2.65,0.00,17.65,22.93,25.88,5.01,27.80,1036.65,2046.00,2488.20,2638.54,2850.69,350.09,361.04,17.71,0000 0000 0000 0000 000000
2015-02-07 03:42:29,0.15,2.65,0.00,17.71,22.94,26.03,4.95,27.92,1036.64,2046.00,2486.94,2637.48,2849.62,350.06,361.00,17.73,0000 0000 0000 0000 000000
2015-02-07 03:47:30,0.15,2.66,0.00,17.74,22.94,26.08,5.00,27.84,1036.64,2046.00,2485.68,2636.59,2848.60,350.45,361.52,17.76,0000 0000 0000 0000 000000
2015-02-07 03:52:32,0.14,2.66,0.00,17.71,22.95,25.92,5.01,27.70,1036.64,2045.99,2484.43,2635.60,2847.54,349.71,360.97,17.79,0000 0000 0000 0000 000000
2015-02-07 03:57:33,0.14,2.67,0.00,17.80,22.97,26.14,5.00,27.58,1036.64,2045.99,2483.03,2634.62,2846.45,350.72,361.48,17.82,0000 0000 0000 0000 000000
2015-02-07 04:02:34,0.16,2.67,0.00,17.72,22.97,26.07,4.96,27.68,1036.64,2045.98,2481.74,2633.61,2845.30,349.37,360.28,17.85,0000 0000 0000 0000 000000
2015-02-07 04:07:36,0.14,2.68,0.00,17.77,22.98,26.12,5.06,27.71,1036.58,2045.99,2480.59,2632.63,2844.24,350.32,361.20,17.88,0000 0000 0000 0000 000000
2015-02-07 04:12:37,0.14,2.68,0.00,17.80,22.99,26.26,5.08,27.83,1036.31,2045.99,2479.28,2631.66,2843.17,350.57,361.36,17.91,0000 0000 0000 0000 000000
2015-02-07 04:17:38,0.15,2.69,0.00,17.73,23.00,26.07,5.05,27.65,1036.21,2045.99,2477.88,2630.65,2842.04,350.50,361.46,17.94,0000 0000 0000 0000 000000
2015-02-07 04:22:39,0.17,2.69,0.00,17.82,23.02,26.26,4.93,27.83,1036.18,2045.98,2476.53,2629.59,2840.95,349.60,360.32,17.97,0000 0000 0000 0000 000000
2015-02-07 04:27:40,0.17,2.69,0.00,17.82,23.04,26.23,4.97,27.89,1036.18,2045.96,2475.07,2628.52,2839.75,349.23,360.36,18.00,0000 0000 0000 0000 000000
2015-02-07 04:32:41,0.14,2.70,0.00,17.80,23.07,26.25,5.04,27.77,1036.27,2045.78,2473.51,2627.32,2838.50,350.47,361.25,18.03,0000 0000 0000 0000 000000
2015-02-07 04:37:43,0.09,2.70,0.00,17.86,23.09,26.40,5.00,27.77,1036.28,2045.50,2472.11,2626.21,2837.28,350.87,361.56,18.06,0000 0000 0000 0000 000000
2015-02-07 04:42:44,0.10,2.71,0.00,17.85,23.11,26.28,5.00,27.85,1036.21,2045.11,2470.64,2625.07,2836.02,349.93,360.59,18.09,0000 0000 0000 0000 000000
2015-02-07 04:47:45,0.16,2.71,0.00,17.90,23.13,26.37,4.93,27.77,1036.19,2045.04,2469.31,2623.96,2834.76,348.99,359.81,18.11,0000 0000 0000 0000 000000
2015-02-07 04:52:46,0.15,2.72,0.00,17.93,23.16,26.49,5.01,27.75,1036.17,2045.01,2467.85,2622.98,2833.67,349.33,360.09,18.14,0000 0000 0000 0000 000000
2015-02-07 04:57:48,0.16,2.72,0.00,17.92,23.18,26.34,5.02,27.73,1036.19,2045.01,2466.52,2621.98,2832.50,350.18,360.88,18.17,0000 0000 0000 0000 000000
2015-02-07 05:02:49,0.16,2.72,0.00,17.91,23.20,26.52,4.94,27.73,1036.17,2045.00,2465.07,2620.86,2831.26,349.52,360.10,18.20,0000 0000 0000 0000 000000
2015-02-07 05:07:51,0.18,2.73,0.00,17.95,23.22,26.53,5.05,27.76,1036.18,2045.00,2463.65,2619.76,2830.03,350.07,360.46,18.23,0000 0000 0000 0000 000000
2015-02-07 05:12:52,0.17,2.73,0.00,17.97,23.24,26.41,5.03,27.63,1036.20,2044.99,2462.05,2618.69,2828.83,350.38,360.80,18.26,0000 0000 0000 0000 000000
2015-02-07 05:17:53,0.18,2.74,0.00,18.03,23.26,26.59,5.00,27.68,1036.33,2044.98,2460.62,2617.54,2827.63,350.30,360.82,18.29,0000 0000 0000 0000 000000
2015-02-07 05:22:54,0.15,2.74,0.00,18.00,23.28,26.52,4.96,27.62,1036.26,2044.99,2459.22,2616.47,2826.48,349.01,359.55,18.32,0000 0000 0000 0000 000000
2015-02-07 05:27:56,0.16,2.75,0.00,17.98,23.29,26.50,4.98,27.66,1036.28,2044.98,2457.79,2615.42,2825.31,349.96,360.51,18.35,0000 0000 0000 0000 000000
2015-02-07 05:32:57,0.15,2.75,0.00,18.03,23.32,26.67,4.92,27.68,1036.35,2044.97,2456.56,2614.38,2824.14,349.11,359.77,18.38,0000 0000 0000 0000 000000
2015-02-07 05:37:58,0.16,2.76,0.00,17.95,23.33,26.50,4.98,27.79,1036.62,2044.93,2455.12,2613.20,2822.80,349.81,360.46,18.41,0000 0000 0000 0000 000000
2015-02-07 05:43:00,0.11,2.76,0.00,18.01,23.35,26.63,5.05,27.77,1036.57,2044.47,2453.53,2612.01,2821.49,350.56,361.31,18.44,0000 0000 0000 0000 000000
2015-02-07 05:48:01,0.15,2.77,0.00,18.05,23.37,26.71,4.97,27.73,1036.55,2044.41,2452.09,2610.91,2820.36,349.33,359.77,18.47,0000 0000 0000 0000 000000
2015-02-07 05:53:02,0.14,2.77,0.00,17.95,23.38,26.50,5.03,27.66,1036.60,2044.22,2450.66,2609.81,2819.19,350.47,361.47,18.50,0000 0000 0000 0000 000000
2015-02-07 05:58:04,0.16,2.78,0.00,18.10,23.40,26.64,4.96,27.73,1036.54,2044.13,2449.28,2608.71,2817.95,349.52,359.97,18.52,0000 0000 0000 0000 000000
2015-02-07 06:03:05,0.18,2.78,0.00,18.10,23.42,26.67,5.03,27.96,1036.48,2044.04,2447.75,2607.59,2816.69,349.74,360.28,18.55,0000 0000 0000 0000 000000
2015-02-07 06:08:06,0.15,2.79,0.00,18.08,23.43,26.52,4.99,27.82,1036.54,2044.03,2446.48,2606.50,2815.53,349.95,360.28,18.58,0000 0000 0000 0000 000000
2015-02-07 06:13:07,0.17,2.79,0.00,18.13,23.45,26.67,5.02,27.66,1036.62,2044.01,2444.83,2605.25,2814.23,350.00,360.32,18.61,0000 0000 0000 0000 000000
2015-02-07 06:18:08,0.16,2.80,0.00,18.15,23.46,26.62,4.95,27.70,1036.60,2044.00,2443.36,2604.15,2813.04,349.88,360.28,18.64,0000 0000 0000 0000 000000
2015-02-07 06:23:09,0.18,2.80,0.00,18.11,23.47,26.52,5.04,27.98,1036.59,2044.00,2441.85,2603.05,2811.83,350.10,360.48,18.67,0000 0000 0000 0000 000000
2015-02-07 06:28:11,0.16,2.81,0.00,18.23,23.49,26.74,4.94,27.71,1036.62,2044.00,2440.66,2601.95,2810.59,349.76,360.05,18.70,0000 0000 0000 0000 000000
2015-02-07 06:33:12,0.16,2.81,0.00,18.09,23.50,26.59,5.01,27.59,1036.61,2044.00,2439.31,2600.84,2809.34,350.18,360.72,18.73,0000 0000 0000 0000 000000
2015-02-07 06:38:13,0.19,2.82,0.00,18.16,23.51,26.63,4.99,27.88,1036.59,2043.99,2437.75,2599.70,2808.04,350.03,360.47,18.76,0000 0000 0000 0000 000000
2015-02-07 06:43:15,0.17,2.82,0.00,18.21,23.52,26.70,5.05,27.85,1036.54,2043.97,2436.34,2598.54,2806.75,350.16,360.62,18.79,0000 0000 0000 0000 000000
2015-02-07 06:48:16,0.17,2.83,0.00,18.13,23.53,26.59,4.95,27.64,1036.40,2043.97,2434.93,2597.45,2805.51,349.38,359.95,18.82,0000 0000 0000 0000 000000
2015-02-07 06:53:17,0.15,2.83,0.00,18.20,23.54,26.61,4.94,27.57,1036.30,2043.94,2433.48,2596.41,2804.41,349.73,359.98,18.85,0000 0000 0000 0000 000000
2015-02-07 06:58:18,0.15,2.84,0.00,18.27,23.55,26.75,5.01,27.71,1036.20,2043.96,2432.29,2595.41,2803.25,350.52,360.57,18.88,0000 0000 0000 0000 000000
2015-02-07 07:03:19,0.14,2.84,0.00,18.22,23.55,26.59,4.89,27.77,1036.24,2043.84,2430.79,2594.30,2801.95,349.10,359.41,18.91,0000 0000 0000 0000 000000
2015-02-07 07:08:21,0.12,2.85,0.00,18.30,23.57,26.65,4.98,27.66,1036.22,2043.59,2429.29,2593.18,2800.81,349.84,360.15,18.93,0000 0000 0000 0000 000000
2015-02-07 07:13:22,0.18,2.85,0.00,18.35,23.57,26.77,5.04,27.67,1036.15,2043.61,2427.85,2592.09,2799.75,350.21,360.22,18.96,0000 0000 0000 0000 000000
2015-02-07 07:18:23,0.15,2.85,0.00,18.20,23.57,26.61,4.96,27.66,1036.15,2043.55,2426.57,2591.06,2798.58,349.71,359.91,18.99,0000 0000 0000 0000 000000
2015-02-07 07:23:24,0.12,2.86,0.00,18.29,23.59,26.66,4.96,27.71,1036.15,2043.18,2424.91,2589.89,2797.37,349.63,359.61,19.02,0000 0000 0000 0000 000000
2015-02-07 07:28:26,0.15,2.86,0.00,18.35,23.60,26.75,4.98,27.77,1036.15,2043.07,2423.56,2588.80,2796.20,349.96,359.96,19.05,0000 0000 0000 0000 000000
2015-02-07 07:33:27,0.17,2.87,0.00,18.23,23.60,26.61,4.94,27.63,1036.16,2043.05,2422.16,2587.73,2794.91,349.04,359.23,19.08,0000 0000 0000 0000 000000
2015-02-07 07:38:28,0.16,2.87,0.00,18.37,23.61,26.68,4.95,27.79,1036.15,2043.02,2420.75,2586.66,2793.75,349.58,359.53,19.11,0000 0000 0000 0000 000000
2015-02-07 07:43:30,0.19,2.88,0.00,18.40,23.62,26.82,5.00,27.72,1036.15,2043.00,2419.08,2585.47,2792.52,349.98,359.83,19.14,0000 0000 0000 0000 000000
2015-02-07 07:48:31,0.17,2.88,0.00,18.31,23.62,26.64,4.92,27.63,1036.15,2043.00,2417.57,2584.40,2791.44,349.36,359.40,19.17,0000 0000 0000 0000 000000
2015-02-07 07:53:32,0.15,2.89,0.00,18.39,23.64,26.73,5.03,27.79,1036.15,2043.00,2416.05,2583.33,2790.28,349.83,359.58,19.20,0000 0000 0000 0000 000000
2015-02-07 07:58:33,0.17,2.89,0.00,18.44,23.65,26.86,4.93,27.71,1036.15,2043.00,2414.73,2582.22,2789.03,349.36,359.35,19.23,0000 0000 0000 0000 000000
2015-02-07 08:03:34,0.17,2.90,0.00,18.36,23.65,26.70,4.99,27.64,1036.15,2043.00,2413.31,2581.09,2787.77,350.04,360.14,19.26,0000 0000 0000 0000 000000
2015-02-07 08:08:35,0.18,2.90,0.00,18.43,23.67,26.74,5.02,27.66,1036.15,2043.00,2411.82,2580.00,2786.61,350.25,360.13,19.29,0000 0000 0000 0000 000000
2015-02-07 08:13:36,0.16,2.91,0.00,18.46,23.67,26.88,5.01,27.71,1036.15,2043.00,2410.37,2578.95,2785.49,350.48,360.32,19.32,0000 0000 0000 0000 000000
2015-02-07 08:18:38,0.15,2.91,0.00,18.40,23.68,26.79,4.99,27.77,1036.14,2043.00,2409.05,2577.90,2784.37,350.70,360.69,19.35,0000 0000 0000 0000 000000
2015-02-07 08:23:39,0.16,2.92,0.00,18.42,23.70,26.74,5.03,27.70,1036.14,2043.00,2407.94,2576.87,2783.05,350.22,359.98,19.37,0000 0000 0000 0000 000000
2015-02-07 08:28:40,0.20,2.92,0.00,18.48,23.70,26.89,4.97,27.73,1036.12,2043.00,2406.61,2575.80,2781.77,349.83,359.65,19.40,0000 0000 0000 0000 000000
2015-02-07 08:33:41,0.16,2.93,0.00,18.43,23.71,26.79,5.06,27.68,1036.11,2042.99,2405.33,2574.71,2780.54,350.37,360.31,19.43,0000 0000 0000 0000 000000
2015-02-07 08:38:42,0.18,2.93,0.00,18.40,23.72,26.81,5.03,27.80,1036.02,2042.98,2403.89,2573.64,2779.39,349.51,359.39,19.46,0000 0000 0000 0000 000000
2015-02-07 08:43:44,0.16,2.94,0.00,18.49,23.72,26.97,4.98,27.78,1035.85,2042.98,2402.25,2572.59,2778.18,349.63,359.27,19.49,0000 0000 0000 0000 000000
2015-02-07 08:48:45,0.17,2.94,0.00,18.36,23.74,26.71,4.97,27.73,1035.83,2042.97,2400.73,2571.48,2777.08,350.11,360.10,19.52,0000 0000 0000 0000 000000
2015-02-07 08:53:47,0.15,2.95,0.00,18.40,23.75,26.73,5.04,27.80,1035.77,2042.95,2399.37,2570.45,2775.98,350.04,359.61,19.55,0000 0000 0000 0000 000000
2015-02-07 08:58:48,0.17,2.95,0.00,18.47,23.75,26.91,4.97,27.76,1035.68,2042.92,2397.74,2569.36,2774.83,349.70,359.48,19.58,0000 0000 0000 0000 000000
2015-02-07 09:03:49,0.17,2.96,0.00,18.44,23.76,26.90,5.00,27.66,1035.69,2042.88,2396.59,2568.26,2773.58,350.40,360.17,19.61,0000 0000 0000 0000 000000
2015-02-07 09:08:50,0.15,2.96,0.00,18.41,23.77,26.74,4.97,27.76,1035.87,2042.88,2395.16,2567.24,2772.41,349.73,359.57,19.64,0000 0000 0000 0000 000000
2015-02-07 09:13:52,0.12,2.97,0.00,18.49,23.77,26.83,4.99,27.77,1035.72,2042.63,2393.66,2566.12,2771.22,349.99,359.61,19.67,0000 0000 0000 0000 000000
2015-02-07 09:18:53,0.14,2.97,0.00,18.50,23.78,26.90,4.97,27.69,1035.69,2042.35,2392.27,2565.04,2769.96,350.18,359.81,19.70,0000 0000 0000 0000 000000
2015-02-07 09:23:54,0.14,2.98,0.00,18.38,23.80,26.72,5.03,27.65,1035.73,2042.25,2390.85,2563.93,2768.74,350.15,360.05,19.73,0000 0000 0000 0000 000000
2015-02-07 09:28:56,0.14,2.98,0.00,18.48,23.80,26.90,4.98,27.70,1035.71,2042.10,2389.48,2562.87,2767.63,350.23,359.90,19.75,0000 0000 0000 0000 000000
2015-02-07 09:33:57,0.16,2.98,0.00,18.49,23.80,26.89,5.05,27.82,1035.71,2042.03,2388.09,2561.81,2766.43,350.42,360.01,19.78,0000 0000 0000 0000 000000
2015-02-07 09:38:58,0.19,2.99,0.00,18.38,23.80,26.72,5.01,27.70,1035.67,2042.04,2386.66,2560.72,2765.24,350.51,360.28,19.81,0000 0000 0000 0000 000000
2015-02-07 09:43:59,0.15,2.99,0.00,18.48,23.81,26.89,4.97,27.76,1035.66,2042.02,2385.19,2559.68,2764.10,349.96,359.62,19.84,0000 0000 0000 0000 000000
2015-02-07 09:49:00,0.16,3.00,0.00,18.52,23.82,26.92,5.00,27.77,1035.66,2042.01,2383.70,2558.73,2763.00,350.54,359.92,19.87,0000 0000 0000 0000 000000
2015-02-07 09:54:01,0.16,3.00,0.00,18.35,23.82,26.74,5.00,27.80,1035.66,2042.00,2382.42,2557.77,2761.81,350.17,359.88,19.90,0000 0000 0000 0000 000000
2015-02-07 09:59:03,0.20,3.01,0.00,18.48,23.82,26.89,5.00,27.68,1035.66,2042.01,2380.78,2556.67,2760.64,350.28,359.97,19.93,0000 0000 0000 0000 000000
2015-02-07 10:04:04,0.15,3.01,0.00,18.56,23.82,27.01,5.01,27.75,1035.65,2042.01,2379.59,2555.69,2759.56,350.39,360.00,19.96,0000 0000 0000 0000 000000
2015-02-07 10:09:05,0.15,3.02,0.00,18.47,23.83,26.88,5.00,27.55,1035.65,2042.01,2378.30,2554.71,2758.40,350.69,360.22,19.99,0000 0000 0000 0000 000000
2015-02-07 10:14:06,0.19,3.02,0.00,18.51,23.84,26.91,4.96,27.74,1035.66,2042.01,2376.71,2553.65,2757.21,349.61,358.93,20.02,0000 0000 0000 0000 000000
2015-02-07 10:19:07,0.16,3.03,0.00,18.53,23.85,26.97,4.95,27.67,1035.66,2042.01,2375.33,2552.55,2756.15,349.66,359.25,20.05,0000 0000 0000 0000 000000
2015-02-07 10:24:08,0.17,3.03,0.00,18.36,23.85,26.81,5.00,27.71,1035.66,2042.00,2373.90,2551.52,2754.99,350.05,359.81,20.08,0000 0000 0000 0000 000000
2015-02-07 10:29:10,0.18,3.04,0.00,18.50,23.85,26.97,4.99,27.74,1035.66,2042.00,2372.50,2550.41,2753.76,349.83,359.55,20.11,0000 0000 0000 0000 000000
2015-02-07 10:34:11,0.16,3.04,0.00,18.52,23.86,27.02,5.02,27.74,1035.63,2042.00,2371.15,2549.40,2752.65,350.01,359.53,20.14,0000 0000 0000 0000 000000
2015-02-07 10:39:13,0.17,3.05,0.00,18.36,23.87,26.78,5.03,27.90,1035.52,2042.00,2369.66,2548.43,2751.63,350.29,360.14,20.16,0000 0000 0000 0000 000000
2015-02-07 10:44:14,0.16,3.05,0.00,18.48,23.87,26.95,4.98,27.70,1035.45,2042.00,2368.18,2547.32,2750.64,350.30,359.93,20.19,0000 0000 0000 0000 000000
2015-02-07 10:49:15,0.16,3.06,0.00,18.53,23.87,27.07,4.97,27.73,1035.38,2042.00,2366.92,2546.24,2749.57,349.99,359.37,20.22,0000 0000 0000 0000 000000
2015-02-07 10:54:17,0.17,3.06,0.00,18.46,23.87,26.84,4.96,27.73,1035.39,2042.00,2365.64,2545.34,2748.45,349.55,358.99,20.25,0000 0000 0000 0000 000000
2015-02-07 10:59:18,0.16,3.07,0.00,18.52,23.88,26.92,4.98,27.77,1035.34,2041.99,2364.35,2544.24,2747.28,349.99,359.34,20.28,0000 0000 0000 0000 000000
2015-02-07 11:04:19,0.17,3.07,0.00,18.56,23.89,27.03,4.96,27.74,1035.21,2041.99,2362.86,2543.20,2746.15,350.21,359.67,20.31,0000 0000 0000 0000 000000
2015-02-07 11:09:21,0.16,3.08,0.00,18.39,23.90,26.86,4.94,27.73,1035.20,2041.99,2361.60,2542.15,2745.05,349.79,359.49,20.34,0000 0000 0000 0000 000000
2015-02-07 11:14:22,0.15,3.08,0.00,18.51,23.90,26.92,4.97,27.60,1035.18,2041.99,2360.38,2541.22,2743.97,350.00,359.54,20.37,0000 0000 0000 0000 000000
2015-02-07 11:19:23,0.15,3.09,0.00,18.56,23.90,27.05,5.08,27.65,1035.17,2041.99,2359.14,2540.31,2742.87,350.98,360.30,20.40,0000 0000 0000 0000 000000
2015-02-07 11:24:24,0.16,3.09,0.00,18.46,23.90,26.92,4.97,27.73,1035.17,2041.99,2357.85,2539.35,2741.82,349.94,359.41,20.43,0000 0000 0000 0000 000000
2015-02-07 11:29:26,0.16,3.10,0.00,18.46,23.91,26.91,5.02,27.79,1035.17,2041.99,2356.68,2538.39,2740.70,350.23,359.91,20.46,0000 0000 0000 0000 000000
2015-02-07 11:34:27,0.16,3.10,0.00,18.52,23.92,27.02,4.90,27.73,1035.17,2041.99,2355.30,2537.33,2739.58,349.88,359.54,20.49,0000 0000 0000 0000 000000
2015-02-07 11:39:28,0.17,3.11,0.00,18.42,23.92,26.90,4.99,27.88,1035.17,2041.99,2353.79,2536.35,2738.53,350.03,359.43,20.52,0000 0000 0000 0000 000000
2015-02-07 11:44:29,0.16,3.11,0.00,18.49,23.92,26.84,4.95,27.72,1035.14,2041.99,2352.48,2535.32,2737.41,349.85,359.43,20.55,0000 0000 0000 0000 000000
2015-02-07 11:49:30,0.15,3.12,0.00,18.54,23.92,27.00,4.92,27.79,1035.14,2041.99,2351.18,2534.33,2736.35,349.60,359.17,20.57,0000 0000 0000 0000 000000
2015-02-07 11:54:31,0.17,3.12,0.00,18.36,23.92,26.87,4.92,27.74,1035.10,2041.97,2349.74,2533.32,2735.31,350.16,359.92,20.60,0000 0000 0000 0000 000000
2015-02-07 11:59:32,0.15,3.13,0.00,18.46,23.93,26.87,4.95,27.76,1035.06,2041.96,2348.41,2532.28,2734.18,349.26,358.58,20.63,0000 0000 0000 0000 000000
2015-02-07 12:04:33,0.16,3.13,0.00,18.54,23.94,27.02,4.89,27.73,1035.08,2041.98,2347.10,2531.30,2733.03,349.33,358.89,20.66,0000 0000 0000 0000 000000
2015-02-07 12:09:35,0.17,3.14,0.00,18.41,23.94,26.87,4.99,27.81,1035.14,2041.98,2345.79,2530.35,2731.90,349.84,359.29,20.69,0000 0000 0000 0000 000000
2015-02-07 12:14:36,0.18,3.14,0.00,18.50,23.95,26.90,4.98,27.68,1035.12,2041.98,2344.46,2529.30,2730.76,350.16,359.72,20.72,0000 0000 0000 0000 000000
2015-02-07 12:19:37,0.15,3.15,0.00,18.58,23.95,27.01,4.95,27.63,1035.03,2041.98,2343.23,2528.31,2729.64,350.25,359.43,20.75,0000 0000 0000 0000 000000
2015-02-07 12:24:38,0.18,3.15,0.00,18.47,23.95,26.82,5.01,27.73,1034.91,2041.97,2341.79,2527.33,2728.51,350.35,359.71,20.78,0000 0000 0000 0000 000000
2015-02-07 12:29:40,0.16,3.16,0.00,18.50,23.95,26.90,4.94,27.76,1034.73,2041.96,2340.62,2526.19,2727.41,350.31,359.56,20.81,0000 0000 0000 0000 000000
2015-02-07 12:34:40,0.14,3.16,0.00,18.56,23.95,26.97,4.99,27.73,1034.73,2041.92,2339.38,2525.27,2726.27,349.98,359.19,20.84,0000 0000 0000 0000 000000
2015-02-07 12:39:42,0.15,3.17,0.00,18.49,23.95,26.87,4.98,27.92,1034.70,2041.83,2337.97,2524.21,2725.07,349.95,359.23,20.87,0000 0000 0000 0000 000000
2015-02-07 12:44:43,0.12,3.17,0.00,18.47,23.95,26.81,5.03,27.78,1034.69,2041.60,2336.70,2523.21,2723.95,350.12,359.45,20.90,0000 0000 0000 0000 000000
2015-02-07 12:49:44,0.16,3.17,0.00,18.57,23.95,26.95,4.91,27.74,1034.69,2041.57,2335.41,2522.24,2722.88,350.03,359.44,20.93,0000 0000 0000 0000 000000
2015-02-07 12:54:46,0.18,3.18,0.00,18.51,23.95,26.93,4.99,27.81,1034.68,2041.68,2333.97,2521.32,2721.86,350.03,359.31,20.96,0000 0000 0000 0000 000000
2015-02-07 12:59:47,0.15,3.18,0.00,18.40,23.95,26.81,4.97,27.84,1034.68,2041.55,2332.57,2520.27,2720.80,349.83,359.21,20.98,0000 0000 0000 0000 000000